Date String (YYYY-MM-DD hh:mm:ss) UTC,Instrument flags,absolute air pressure of the measurement (hPa),sample flow rate (lpm),inlet stack bypass flow (lpm),air temperature of the measurement (°C),ambient temperature measured by the external sensor (°C),aerosol sample conditioner tube jacket temperature (°C),OPC LED temperature (°C),internal box temperature (°C),relative humidity of the measurement (%),span deviation,mass concentration of particles derived from Lorenz-Mie calculation of OPC scattering (μg/m³),mass concentration of particles derived from Lorenz-Mie calculation of OPC scattering (μg/m³),mass concentration of particles derived from Lorenz-Mie calculation of OPC scattering (μg/m³)
DateTimeUTC,F1_M11,P_M11,Q1_M11,Q2_M11,T1_M11,T2_M11,T3_M11,T4_M11,T5_M11,U1_M11,ZSPAN_M11,X2_M11,X0_M11,X1_M11
2024-01-26 22:00:00,SystemResetWarning,0834.0,5.00,000.00,023.1,022.5,000.0,031.3,024.5,15.4,0000.0,0003.97,0007.21,0003.78
2024-01-26 22:01:00,SystemResetWarning,0834.0,5.00,000.00,023.1,022.5,000.0,031.3,024.5,15.2,0000.0,0003.88,0006.50,0003.72
2024-01-26 22:02:00,SystemResetWarning,0834.0,5.01,000.00,023.1,022.5,000.0,031.3,024.5,15.3,0000.0,0003.82,0006.30,0003.68
2024-01-26 22:03:00,SystemResetWarning,0834.1,5.01,000.00,023.1,022.5,000.0,031.3,024.5,15.2,0000.0,0003.74,0006.14,0003.62
2024-01-26 22:04:00,SystemResetWarning,0834.1,5.00,000.00,023.1,022.5,000.0,031.3,024.5,15.4,0000.0,0003.64,0004.84,0003.55
2024-01-26 22:05:00,SystemResetWarning,0834.0,5.00,000.00,023.1,022.5,000.0,031.3,024.5,15.5,0000.0,0003.62,0004.45,0003.55
2024-01-26 22:06:00,SystemResetWarning,0834.0,4.99,000.00,023.1,022.5,000.0,031.3,024.6,15.2,0000.0,0003.64,0004.57,0003.56
2024-01-26 22:07:00,SystemResetWarning,0834.0,5.00,000.00,023.1,022.5,000.0,031.4,024.5,15.2,0000.0,0003.68,0006.01,0003.58
2024-01-26 22:08:00,SystemResetWarning,0834.1,5.00,000.00,023.1,022.6,000.0,031.4,024.6,15.6,0000.0,0003.71,0006.18,0003.59
2024-01-26 22:09:00,SystemResetWarning,0834.1,5.00,000.00,023.2,022.6,000.0,031.4,024.6,15.5,0000.0,0003.74,0006.64,0003.60
2024-01-26 22:10:00,SystemResetWarning,0834.1,5.01,000.00,023.2,022.6,000.0,031.4,024.6,15.0,0000.0,0003.76,0007.34,0003.61
2024-01-26 22:11:00,SystemResetWarning,0834.1,5.01,000.00,023.2,022.6,000.0,031.4,024.6,14.8,0000.0,0003.80,0007.89,0003.64
2024-01-26 22:12:00,SystemResetWarning,0834.1,5.00,000.00,023.2,022.6,000.0,031.4,024.6,14.8,0000.0,0003.81,0007.90,0003.65
2024-01-26 22:13:00,SystemResetWarning,0834.1,5.00,000.00,023.2,022.6,000.0,031.4,024.6,14.8,0000.0,0003.81,0007.92,0003.65
2024-01-26 22:14:00,SystemResetWarning,0834.1,5.00,000.00,023.2,022.6,000.0,031.4,024.6,14.9,0000.0,0003.82,0007.92,0003.65
2024-01-26 22:15:00,SystemResetWarning,0834.2,5.00,000.00,023.2,022.6,000.0,031.4,024.6,15.4,0000.0,0003.84,0007.90,0003.67
2024-01-26 22:16:00,SystemResetWarning,0834.2,5.01,000.00,023.2,022.6,000.0,031.4,024.6,15.4,0000.0,0003.86,0007.95,0003.68
2024-01-26 22:17:00,SystemResetWarning,0834.2,4.99,000.00,023.2,022.6,000.0,031.5,024.6,15.2,0000.0,0003.89,0008.01,0003.69
2024-01-26 22:18:00,SystemResetWarning,0834.2,4.99,000.00,023.2,022.6,000.0,031.5,024.7,15.0,0000.0,0003.90,0007.46,0003.69
2024-01-26 22:19:00,SystemResetWarning,0834.2,4.99,000.00,023.3,022.7,000.0,031.5,024.7,14.8,0000.0,0003.91,0007.27,0003.70
2024-01-26 22:20:00,SystemResetWarning,0834.2,5.00,000.00,023.3,022.7,000.0,031.5,024.7,14.7,0000.0,0003.91,0007.18,0003.71
2024-01-26 22:21:00,SystemResetWarning,0834.2,5.00,000.00,023.3,022.7,000.0,031.5,024.7,14.6,0000.0,0003.91,0007.14,0003.72
2024-01-26 22:22:00,SystemResetWarning,0834.2,5.00,000.00,023.3,022.7,000.0,031.5,024.7,14.6,0000.0,0003.90,0006.42,0003.72
2024-01-26 22:23:00,SystemResetWarning,0834.2,5.00,000.00,023.3,022.7,000.0,031.5,024.7,14.7,0000.0,0003.91,0006.37,0003.72
2024-01-26 22:24:00,SystemResetWarning,0834.3,5.01,000.00,023.3,022.7,000.0,031.5,024.7,14.6,0000.0,0003.96,0006.54,0003.73
2024-01-26 22:25:00,SystemResetWarning,0834.3,5.01,000.00,023.3,022.7,000.0,031.5,024.8,14.6,0000.0,0003.99,0006.70,0003.74
2024-01-26 22:26:00,SystemResetWarning,0834.4,5.00,000.00,023.3,022.7,000.0,031.5,024.8,14.7,0000.0,0004.02,0006.86,0003.75
2024-01-26 22:27:00,SystemResetWarning,0834.5,5.00,000.00,023.3,022.7,000.0,031.6,024.8,15.0,0000.0,0004.04,0006.90,0003.75
2024-01-26 22:28:00,SystemResetWarning,0834.7,5.00,000.00,023.4,022.8,000.0,031.6,024.8,14.8,0000.0,0004.02,0006.80,0003.75
2024-01-26 22:29:00,SystemResetWarning,0834.4,5.00,000.00,023.4,022.8,000.0,031.6,024.8,14.6,0000.0,0003.98,0006.68,0003.74
2024-01-26 22:30:00,SystemResetWarning,0834.2,5.00,000.00,023.4,022.8,000.0,031.6,024.8,14.6,0000.0,0003.97,0006.61,0003.73
2024-01-26 22:31:00,SystemResetWarning,0834.3,5.00,000.00,023.4,022.8,000.0,031.6,024.8,14.6,0000.0,0003.95,0006.51,0003.72
2024-01-26 22:32:00,SystemResetWarning,0834.3,5.01,000.00,023.4,022.8,000.0,031.6,024.8,14.6,0000.0,0003.93,0005.91,0003.70
2024-01-26 22:33:00,SystemResetWarning,0834.3,5.00,000.00,023.4,022.8,000.0,031.6,024.8,15.1,0000.0,0003.94,0005.48,0003.69
2024-01-26 22:34:00,SystemResetWarning,0834.3,5.00,000.00,023.4,022.8,000.0,031.6,024.8,15.4,0000.0,0003.92,0005.47,0003.67
2024-01-26 22:35:00,SystemResetWarning,0834.3,5.00,000.00,023.4,022.8,000.0,031.6,024.8,15.8,0000.0,0003.89,0005.37,0003.66
2024-01-26 22:36:00,SystemResetWarning,0834.3,5.00,000.00,023.4,022.8,000.0,031.6,024.8,16.1,0000.0,0003.86,0005.27,0003.64
2024-01-26 22:37:00,SystemResetWarning,0834.3,5.00,000.00,023.4,022.8,000.0,031.7,024.8,16.3,0000.0,0003.82,0005.09,0003.62
2024-01-26 22:38:00,SystemResetWarning,0834.3,5.00,000.00,023.5,022.8,000.0,031.7,024.9,16.3,0000.0,0003.78,0004.99,0003.60
2024-01-26 22:39:00,SystemResetWarning,0834.3,5.00,000.00,023.5,022.8,000.0,031.7,024.8,16.1,0000.0,0003.77,0005.08,0003.59
2024-01-26 22:40:00,SystemResetWarning,0834.4,5.00,000.00,023.5,022.8,000.0,031.7,024.8,15.9,0000.0,0003.76,0005.16,0003.58
2024-01-26 22:41:00,SystemResetWarning,0834.4,5.00,000.00,023.5,022.8,000.0,031.7,024.8,15.8,0000.0,0003.73,0005.03,0003.56
2024-01-26 22:42:00,SystemResetWarning,0834.4,5.00,000.00,023.5,022.8,000.0,031.7,024.8,15.9,0000.0,0003.72,0005.05,0003.55
2024-01-26 22:43:00,SystemResetWarning,0834.4,5.00,000.00,023.5,022.8,000.0,031.7,024.8,15.9,0000.0,0003.74,0005.11,0003.55
2024-01-26 22:44:00,SystemResetWarning,0834.4,5.00,000.00,023.5,022.8,000.0,031.7,024.9,16.1,0000.0,0003.72,0005.51,0003.54
2024-01-26 22:45:00,SystemResetWarning,0834.4,5.00,000.00,023.5,022.8,000.0,031.7,024.9,16.1,0000.0,0003.70,0006.09,0003.53
2024-01-26 22:46:00,SystemResetWarning,0834.4,5.00,000.00,023.5,022.8,000.0,031.7,024.9,16.2,0000.0,0003.69,0006.10,0003.52
2024-01-26 22:47:00,SystemResetWarning,0834.4,5.00,000.00,023.5,022.8,000.0,031.7,024.9,16.1,0000.0,0003.68,0006.12,0003.52
2024-01-26 22:48:00,SystemResetWarning,0834.5,5.01,000.00,023.5,022.8,000.0,031.7,024.9,15.6,0000.0,0003.68,0006.22,0003.52
2024-01-26 22:49:00,SystemResetWarning,0834.5,5.00,000.00,023.5,022.8,000.0,031.7,024.9,15.5,0000.0,0003.67,0006.19,0003.50
2024-01-26 22:50:00,SystemResetWarning,0834.5,5.01,000.00,023.5,022.8,000.0,031.8,024.9,15.6,0000.0,0003.66,0006.10,0003.50
2024-01-26 22:51:00,SystemResetWarning,0834.5,5.00,000.00,023.5,022.8,000.0,031.8,024.9,15.9,0000.0,0003.65,0005.99,0003.49
2024-01-26 22:52:00,SystemResetWarning,0834.6,5.00,000.00,023.5,022.8,000.0,031.8,024.9,16.1,0000.0,0003.66,0006.04,0003.48
2024-01-26 22:53:00,SystemResetWarning,0834.7,5.00,000.00,023.5,022.8,000.0,031.8,024.9,16.0,0000.0,0003.65,0006.16,0003.46
2024-01-26 22:54:00,SystemResetWarning,0835.1,5.00,000.00,023.5,022.8,000.0,031.8,024.9,15.9,0000.0,0003.61,0006.04,0003.43
2024-01-26 22:55:00,SystemResetWarning,0835.1,5.00,000.00,023.5,022.8,000.0,031.8,024.9,15.7,0000.0,0003.59,0005.64,0003.41
2024-01-26 22:56:00,SystemResetWarning,0835.0,5.00,000.00,023.5,022.8,000.0,031.8,024.9,15.6,0000.0,0003.58,0004.87,0003.38
2024-01-26 22:57:00,SystemResetWarning,0835.1,5.00,000.00,023.5,022.8,000.0,031.8,024.9,15.9,0000.0,0003.58,0004.91,0003.37
2024-01-26 22:58:00,SystemResetWarning,0835.1,5.00,000.00,023.5,022.8,000.0,031.8,024.9,15.8,0000.0,0003.54,0004.78,0003.34
2024-01-26 22:59:00,SystemResetWarning,0834.9,5.00,000.00,023.6,022.8,000.0,031.8,024.9,15.6,0000.0,0003.50,0004.74,0003.30
